This is the latest recevied weather packets stored in our database for station/object LU8MPR-10. If no packets are shown the sender has not sent any weather packets the latest 10 day(s).
| Time | Temp. | Humidity | Pressure | Rain* | Wind** | Luminosity | Snow |
|---|---|---|---|---|---|---|---|
| 1777488019 | 18.33° C | 26% | 1014.5 hPa | - | - | - | - |
| 1777487118 | 18.33° C | 27% | 1014.8 hPa | - | - | - | - |
| 1777486218 | 18.33° C | 27% | 1015 hPa | - | - | - | - |
| 1777485318 | 18.33° C | 28% | 1015.1 hPa | - | - | - | - |
| 1777484417 | 18.33° C | 28% | 1015.3 hPa | - | - | - | - |
| 1777483516 | 17.78° C | 30% | 1015.7 hPa | - | - | - | - |
| 1777482616 | 17.78° C | 29% | 1016 hPa | - | - | - | - |
| 1777481716 | 17.78° C | 29% | 1016.2 hPa | - | - | - | - |
| 1777480816 | 17.78° C | 28% | 1016.5 hPa | - | - | - | - |
| 1777479915 | 17.78° C | 28% | 1016.7 hPa | - | - | - | - |
| 1777479015 | 17.78° C | 28% | 1017 hPa | - | - | - | - |
| 1777478115 | 17.78° C | 29% | 1017.2 hPa | - | - | - | - |
| 1777477215 | 17.22° C | 29% | 1017.2 hPa | - | - | - | - |
| 1777476315 | 17.78° C | 28% | 1017.5 hPa | - | - | - | - |
| 1777475414 | 17.22° C | 29% | 1017.5 hPa | - | - | - | - |
| 1777475343 | 17.78° C | 29% | 1017.4 hPa | - | - | - | - |
| 1777475292 | 17.22° C | 29% | 1017.4 hPa | - | - | - | - |
| 1777474785 | 17.22° C | 29% | 1017.4 hPa | - | - | - | - |
| 1777473884 | 17.22° C | 29% | 1017.2 hPa | - | - | - | - |
| 1777472984 | 17.78° C | 29% | 1017.2 hPa | - | - | - | - |
| 1777472903 | 17.22° C | 30% | 1017.1 hPa | - | - | - | - |
| 1777472759 | 18.33° C | 30% | 1017.1 hPa | - | - | - | - |
| 1777472389 | 18.33° C | 30% | 1018 hPa | - | - | - | - |
| 1777472261 | 18.33° C | 30% | 1017.9 hPa | - | - | - | - |
| 1777471513 | 22.22° C | 30% | 1018.1 hPa | - | - | - | - |
* Rain since midnight (hover to see other rain measurements)
** Current wind speed in m/s (hover to see current wind gust speed)